Year,Month,Day,Hour,Minute,Value (Times are PST for temperature in C)
2016,05,31,00,00,13.80
2016,05,31,00,01,13.70
2016,05,31,00,02,13.70
2016,05,31,00,03,13.70
2016,05,31,00,04,13.60
2016,05,31,00,05,13.60
2016,05,31,00,06,13.60
2016,05,31,00,07,13.60
2016,05,31,00,08,13.50
2016,05,31,00,09,13.50
2016,05,31,00,10,13.40
2016,05,31,00,11,13.40
2016,05,31,00,12,13.30
2016,05,31,00,13,13.30
2016,05,31,00,14,13.30
2016,05,31,00,15,13.20
2016,05,31,00,16,13.20
2016,05,31,00,17,13.20
2016,05,31,00,18,13.20
2016,05,31,00,19,13.10
2016,05,31,00,20,13.10
2016,05,31,00,21,13.00
2016,05,31,00,22,13.00
2016,05,31,00,23,12.90
2016,05,31,00,24,12.90
2016,05,31,00,25,12.90
2016,05,31,00,26,12.80
2016,05,31,00,27,12.80
2016,05,31,00,28,12.80
2016,05,31,00,29,12.80
2016,05,31,00,30,12.80
2016,05,31,00,31,12.80
2016,05,31,00,32,12.70
2016,05,31,00,33,12.70
2016,05,31,00,34,12.70
2016,05,31,00,35,12.70
2016,05,31,00,36,12.70
2016,05,31,00,37,12.70
2016,05,31,00,38,12.70
2016,05,31,00,39,12.60
2016,05,31,00,40,12.60
2016,05,31,00,41,12.60
2016,05,31,00,42,12.60
2016,05,31,00,43,12.50
2016,05,31,00,44,12.50
2016,05,31,00,45,12.40
2016,05,31,00,46,12.30
2016,05,31,00,47,12.30
2016,05,31,00,48,12.30
2016,05,31,00,49,12.20
2016,05,31,00,50,12.20
2016,05,31,00,51,12.20
2016,05,31,00,52,12.20
2016,05,31,00,53,12.10
2016,05,31,00,54,12.10
2016,05,31,00,55,12.10
2016,05,31,00,56,12.10
2016,05,31,00,57,12.10
2016,05,31,00,58,12.10
2016,05,31,00,59,12.10
2016,05,31,01,00,12.00
2016,05,31,01,01,12.00
2016,05,31,01,02,12.00
2016,05,31,01,03,12.00
2016,05,31,01,04,12.00
2016,05,31,01,05,12.00
2016,05,31,01,06,12.00
2016,05,31,01,07,12.00
2016,05,31,01,08,12.00
2016,05,31,01,09,12.00
2016,05,31,01,10,12.00
2016,05,31,01,11,12.00
2016,05,31,01,12,12.00
2016,05,31,01,13,12.00
2016,05,31,01,14,11.90
2016,05,31,01,15,11.90
2016,05,31,01,16,11.90
2016,05,31,01,17,11.90
2016,05,31,01,18,11.90
2016,05,31,01,19,11.80
2016,05,31,01,20,11.80
2016,05,31,01,21,11.80
2016,05,31,01,22,11.80
2016,05,31,01,23,11.80
2016,05,31,01,24,11.80
2016,05,31,01,25,11.80
2016,05,31,01,26,11.70
2016,05,31,01,27,11.70
2016,05,31,01,28,11.70
2016,05,31,01,29,11.70
2016,05,31,01,30,11.70
2016,05,31,01,31,11.70
2016,05,31,01,32,11.70
2016,05,31,01,33,11.70
2016,05,31,01,34,11.60
2016,05,31,01,35,11.60
2016,05,31,01,36,11.60
2016,05,31,01,37,11.60
2016,05,31,01,38,11.60
2016,05,31,01,39,11.60
2016,05,31,01,40,11.60
2016,05,31,01,41,11.50
2016,05,31,01,42,11.50
2016,05,31,01,43,11.50
2016,05,31,01,44,11.40
2016,05,31,01,45,11.40
2016,05,31,01,46,11.40
2016,05,31,01,47,11.40
2016,05,31,01,48,11.40
2016,05,31,01,49,11.40
2016,05,31,01,50,11.30
2016,05,31,01,51,11.30
2016,05,31,01,52,11.30
2016,05,31,01,53,11.30
2016,05,31,01,54,11.30
2016,05,31,01,55,11.20
2016,05,31,01,56,11.20
2016,05,31,01,57,11.20
2016,05,31,01,58,11.20
2016,05,31,01,59,11.20
2016,05,31,02,00,11.20
2016,05,31,02,01,11.10
2016,05,31,02,02,11.10
2016,05,31,02,03,11.10
2016,05,31,02,04,11.10
2016,05,31,02,05,11.10
2016,05,31,02,06,11.10
2016,05,31,02,07,11.00
2016,05,31,02,08,11.00
2016,05,31,02,09,11.00
2016,05,31,02,10,11.00
2016,05,31,02,11,10.90
2016,05,31,02,12,10.90
2016,05,31,02,13,10.90
2016,05,31,02,14,10.90
2016,05,31,02,15,10.80
2016,05,31,02,16,10.80
2016,05,31,02,17,10.80
2016,05,31,02,18,10.80
2016,05,31,02,19,10.80
2016,05,31,02,20,10.70
2016,05,31,02,21,10.70
2016,05,31,02,22,10.70
2016,05,31,02,23,10.70
2016,05,31,02,24,10.70
2016,05,31,02,25,10.60
2016,05,31,02,26,10.60
2016,05,31,02,27,10.60
2016,05,31,02,28,10.60
2016,05,31,02,29,10.60
2016,05,31,02,30,10.60
2016,05,31,02,31,10.60
2016,05,31,02,32,10.50
2016,05,31,02,33,10.50
2016,05,31,02,34,10.50
2016,05,31,02,35,10.50
2016,05,31,02,36,10.40
2016,05,31,02,37,10.40
2016,05,31,02,38,10.40
2016,05,31,02,39,10.40
2016,05,31,02,40,10.40
2016,05,31,02,41,10.40
2016,05,31,02,42,10.40
2016,05,31,02,43,10.30
2016,05,31,02,44,10.30
2016,05,31,02,45,10.30
2016,05,31,02,46,10.30
2016,05,31,02,47,10.30
2016,05,31,02,48,10.30
2016,05,31,02,49,10.20
2016,05,31,02,50,10.20
2016,05,31,02,51,10.20
2016,05,31,02,52,10.20
2016,05,31,02,53,10.20
2016,05,31,02,54,10.20
2016,05,31,02,55,10.10
2016,05,31,02,56,10.10
2016,05,31,02,57,10.10
2016,05,31,02,58,10.10
2016,05,31,02,59,10.00
2016,05,31,03,00,10.00
2016,05,31,03,01,10.00
2016,05,31,03,02,10.00
2016,05,31,03,03,10.00
2016,05,31,03,04,10.00
2016,05,31,03,05,10.00
2016,05,31,03,06,10.00
2016,05,31,03,07,10.00
2016,05,31,03,08,10.00
2016,05,31,03,09,10.00
2016,05,31,03,10,9.90
2016,05,31,03,11,9.90
2016,05,31,03,12,9.90
2016,05,31,03,13,9.90
2016,05,31,03,14,9.90
2016,05,31,03,15,9.90
2016,05,31,03,16,9.90
2016,05,31,03,17,9.90
2016,05,31,03,18,9.90
2016,05,31,03,19,9.90
2016,05,31,03,20,9.90
2016,05,31,03,21,10.00
2016,05,31,03,22,10.00
2016,05,31,03,23,10.00
2016,05,31,03,24,10.00
2016,05,31,03,25,10.00
2016,05,31,03,26,9.90
2016,05,31,03,27,9.90
2016,05,31,03,28,9.90
2016,05,31,03,29,9.90
2016,05,31,03,30,9.90
2016,05,31,03,31,9.90
2016,05,31,03,32,9.90
2016,05,31,03,33,9.80
2016,05,31,03,34,9.80
2016,05,31,03,35,9.80
2016,05,31,03,36,9.80
2016,05,31,03,37,9.80
2016,05,31,03,38,9.80
2016,05,31,03,39,9.80
2016,05,31,03,40,9.80
2016,05,31,03,41,9.80
2016,05,31,03,42,9.80
2016,05,31,03,43,9.80
2016,05,31,03,44,9.80
2016,05,31,03,45,9.80
2016,05,31,03,46,9.80
2016,05,31,03,47,9.80
2016,05,31,03,48,9.70
2016,05,31,03,49,9.70
2016,05,31,03,50,9.70
2016,05,31,03,51,9.70
2016,05,31,03,52,9.70
2016,05,31,03,53,9.70
2016,05,31,03,54,9.70
2016,05,31,03,55,9.70
2016,05,31,03,56,9.70
2016,05,31,03,57,9.70
2016,05,31,03,58,9.70
2016,05,31,03,59,9.70
2016,05,31,04,00,9.70
2016,05,31,04,01,9.60
2016,05,31,04,02,9.60
2016,05,31,04,03,9.60
2016,05,31,04,04,9.60
2016,05,31,04,05,9.60
2016,05,31,04,06,9.60
2016,05,31,04,07,9.50
2016,05,31,04,08,9.50
2016,05,31,04,09,9.50
2016,05,31,04,10,9.50
2016,05,31,04,11,9.40
2016,05,31,04,12,9.40
2016,05,31,04,13,9.40
2016,05,31,04,14,9.40
2016,05,31,04,15,9.40
2016,05,31,04,16,9.40
2016,05,31,04,17,9.40
2016,05,31,04,18,9.40
2016,05,31,04,19,9.40
2016,05,31,04,20,9.40
2016,05,31,04,21,9.40
2016,05,31,04,22,9.40
2016,05,31,04,23,9.40
2016,05,31,04,24,9.40
2016,05,31,04,25,9.40
2016,05,31,04,26,9.40
2016,05,31,04,27,9.40
2016,05,31,04,28,9.40
2016,05,31,04,29,9.40
2016,05,31,04,30,9.40
2016,05,31,04,31,9.30
2016,05,31,04,32,9.30
2016,05,31,04,33,9.30
2016,05,31,04,34,9.30
2016,05,31,04,35,9.30
2016,05,31,04,36,9.20
2016,05,31,04,37,9.20
2016,05,31,04,38,9.20
2016,05,31,04,39,9.20
2016,05,31,04,40,9.20
2016,05,31,04,41,9.20
2016,05,31,04,42,9.20
2016,05,31,04,43,9.20
2016,05,31,04,44,9.20
2016,05,31,04,45,9.20
2016,05,31,04,46,9.10
2016,05,31,04,47,9.10
2016,05,31,04,48,9.10
2016,05,31,04,49,9.10
2016,05,31,04,50,9.10
2016,05,31,04,51,9.10
2016,05,31,04,52,9.10
2016,05,31,04,53,9.10
2016,05,31,04,54,9.20
2016,05,31,04,55,9.20
2016,05,31,04,56,9.20
2016,05,31,04,57,9.20
2016,05,31,04,58,9.10
2016,05,31,04,59,9.20
2016,05,31,05,00,9.10
2016,05,31,05,01,9.10
2016,05,31,05,02,9.20
2016,05,31,05,03,9.20
2016,05,31,05,04,9.10
2016,05,31,05,05,9.10
2016,05,31,05,06,9.10
2016,05,31,05,07,9.10
2016,05,31,05,08,9.10
2016,05,31,05,09,9.10
2016,05,31,05,10,9.10
2016,05,31,05,11,9.10
2016,05,31,05,12,9.10
2016,05,31,05,13,9.10
2016,05,31,05,14,9.10
2016,05,31,05,15,9.10
2016,05,31,05,16,9.10
2016,05,31,05,17,9.10
2016,05,31,05,18,9.10
2016,05,31,05,19,9.10
2016,05,31,05,20,9.10
2016,05,31,05,21,9.10
2016,05,31,05,22,9.10
2016,05,31,05,23,9.10
2016,05,31,05,24,9.10
2016,05,31,05,25,9.10
2016,05,31,05,26,9.10
2016,05,31,05,27,9.10
2016,05,31,05,28,9.10
2016,05,31,05,29,9.00
2016,05,31,05,30,9.00
2016,05,31,05,31,9.00
2016,05,31,05,32,9.00
2016,05,31,05,33,9.00
2016,05,31,05,34,9.00
2016,05,31,05,35,9.00
2016,05,31,05,36,9.00
2016,05,31,05,37,9.00
2016,05,31,05,38,9.00
2016,05,31,05,39,9.00
2016,05,31,05,40,9.00
2016,05,31,05,41,9.00
2016,05,31,05,42,9.00
2016,05,31,05,43,9.00
2016,05,31,05,44,9.00
2016,05,31,05,45,9.00
2016,05,31,05,46,9.00
2016,05,31,05,47,9.00
2016,05,31,05,48,9.00
2016,05,31,05,49,9.00
2016,05,31,05,50,9.00
2016,05,31,05,51,9.00
2016,05,31,05,52,9.00
2016,05,31,05,53,9.00
2016,05,31,05,54,9.00
2016,05,31,05,55,9.00
2016,05,31,05,56,9.10
2016,05,31,05,57,9.10
2016,05,31,05,58,9.00
2016,05,31,05,59,9.10
2016,05,31,06,00,9.10
2016,05,31,06,01,9.00
2016,05,31,06,02,9.10
2016,05,31,06,03,9.00
2016,05,31,06,04,9.10
2016,05,31,06,05,9.10
2016,05,31,06,06,9.10
2016,05,31,06,07,9.10
2016,05,31,06,08,9.10
2016,05,31,06,09,9.10
2016,05,31,06,10,9.10
2016,05,31,06,11,9.10
2016,05,31,06,12,9.20
2016,05,31,06,13,9.20
2016,05,31,06,14,9.20
2016,05,31,06,15,9.20
2016,05,31,06,16,9.30
2016,05,31,06,17,9.30
2016,05,31,06,18,9.30
2016,05,31,06,19,9.30
2016,05,31,06,20,9.30
2016,05,31,06,21,9.30
2016,05,31,06,22,9.40
2016,05,31,06,23,9.40
2016,05,31,06,24,9.40
2016,05,31,06,25,9.40
2016,05,31,06,26,9.50
2016,05,31,06,27,9.50
2016,05,31,06,28,9.60
2016,05,31,06,29,9.60
2016,05,31,06,30,9.70
2016,05,31,06,31,9.70
2016,05,31,06,32,9.70
2016,05,31,06,33,9.70
2016,05,31,06,34,9.80
2016,05,31,06,35,9.80
2016,05,31,06,36,9.80
2016,05,31,06,37,9.80
2016,05,31,06,38,9.80
2016,05,31,06,39,9.90
2016,05,31,06,40,9.90
2016,05,31,06,41,9.90
2016,05,31,06,42,9.90
2016,05,31,06,43,9.90
2016,05,31,06,44,9.90
2016,05,31,06,45,10.00
2016,05,31,06,46,10.00
2016,05,31,06,47,10.00
2016,05,31,06,48,10.00
2016,05,31,06,49,10.10
2016,05,31,06,50,10.10
2016,05,31,06,51,10.10
2016,05,31,06,52,10.10
2016,05,31,06,53,10.10
2016,05,31,06,54,10.10
2016,05,31,06,55,10.10
2016,05,31,06,56,10.10
2016,05,31,06,57,10.10
2016,05,31,06,58,10.10
2016,05,31,06,59,10.10
2016,05,31,07,00,10.10
2016,05,31,07,01,10.10
2016,05,31,07,02,10.10
2016,05,31,07,03,10.10
2016,05,31,07,04,10.10
2016,05,31,07,05,10.20
2016,05,31,07,06,10.20
2016,05,31,07,07,10.20
2016,05,31,07,08,10.20
2016,05,31,07,09,10.20
2016,05,31,07,10,10.30
2016,05,31,07,11,10.30
2016,05,31,07,12,10.30
2016,05,31,07,13,10.30
2016,05,31,07,14,10.30
2016,05,31,07,15,10.30
2016,05,31,07,16,10.40
2016,05,31,07,17,10.40
2016,05,31,07,18,10.40
2016,05,31,07,19,10.50
2016,05,31,07,20,10.50
2016,05,31,07,21,10.60
2016,05,31,07,22,10.60
2016,05,31,07,23,10.60
2016,05,31,07,24,10.70
2016,05,31,07,25,10.70
2016,05,31,07,26,10.70
2016,05,31,07,27,10.70
2016,05,31,07,28,10.70
2016,05,31,07,29,10.80
2016,05,31,07,30,10.80
2016,05,31,07,31,10.80
2016,05,31,07,32,10.90
2016,05,31,07,33,10.90
2016,05,31,07,34,10.90
2016,05,31,07,35,11.00
2016,05,31,07,36,11.00
2016,05,31,07,37,11.00
2016,05,31,07,38,11.10
2016,05,31,07,39,11.10
2016,05,31,07,40,11.10
2016,05,31,07,41,11.10
2016,05,31,07,42,11.10
2016,05,31,07,43,11.20
2016,05,31,07,44,11.20
2016,05,31,07,45,11.20
2016,05,31,07,46,11.20
2016,05,31,07,47,11.20
2016,05,31,07,48,11.20
2016,05,31,07,49,11.30
2016,05,31,07,50,11.30
2016,05,31,07,51,11.30
2016,05,31,07,52,11.30
2016,05,31,07,53,11.40
2016,05,31,07,54,11.40
2016,05,31,07,55,11.40
2016,05,31,07,56,11.40
2016,05,31,07,57,11.40
2016,05,31,07,58,11.50
2016,05,31,07,59,11.50
2016,05,31,08,00,11.60
2016,05,31,08,01,11.60
2016,05,31,08,02,11.60
2016,05,31,08,03,11.60
2016,05,31,08,04,11.70
2016,05,31,08,05,11.70
2016,05,31,08,06,11.80
2016,05,31,08,07,11.80
2016,05,31,08,08,11.90
2016,05,31,08,09,11.90
2016,05,31,08,10,12.00
2016,05,31,08,11,12.10
2016,05,31,08,12,12.10
2016,05,31,08,13,12.20
2016,05,31,08,14,12.30
2016,05,31,08,15,12.30
2016,05,31,08,16,12.40
2016,05,31,08,17,12.50
2016,05,31,08,18,12.50
2016,05,31,08,19,12.50
2016,05,31,08,20,12.60
2016,05,31,08,21,12.60
2016,05,31,08,22,12.70
2016,05,31,08,23,12.70
2016,05,31,08,24,12.80
2016,05,31,08,25,12.90
2016,05,31,08,26,13.00
2016,05,31,08,27,13.10
2016,05,31,08,28,13.20
2016,05,31,08,29,13.30
2016,05,31,08,30,13.40
2016,05,31,08,31,13.50
2016,05,31,08,32,13.60
2016,05,31,08,33,13.70
2016,05,31,08,34,13.80
2016,05,31,08,35,13.80
2016,05,31,08,36,13.80
2016,05,31,08,37,13.90
2016,05,31,08,38,13.90
2016,05,31,08,39,13.90
2016,05,31,08,40,13.90
2016,05,31,08,41,14.00
2016,05,31,08,42,14.10
2016,05,31,08,43,14.10
2016,05,31,08,44,14.10
2016,05,31,08,45,14.10
2016,05,31,08,46,14.20
2016,05,31,08,47,14.20
2016,05,31,08,48,14.20
2016,05,31,08,49,14.30
2016,05,31,08,50,14.30
2016,05,31,08,51,14.30
2016,05,31,08,52,14.30
2016,05,31,08,53,14.40
2016,05,31,08,54,14.40
2016,05,31,08,55,14.50
2016,05,31,08,56,14.50
2016,05,31,08,57,14.60
2016,05,31,08,58,14.70
2016,05,31,08,59,14.70
2016,05,31,09,00,14.80
2016,05,31,09,01,14.80
2016,05,31,09,02,14.80
2016,05,31,09,03,14.80
2016,05,31,09,04,14.80
2016,05,31,09,05,14.90
2016,05,31,09,06,15.00
2016,05,31,09,07,15.10
2016,05,31,09,08,15.10
2016,05,31,09,09,15.20
2016,05,31,09,10,15.30
2016,05,31,09,11,15.40
2016,05,31,09,12,15.50
2016,05,31,09,13,15.60
2016,05,31,09,14,15.70
2016,05,31,09,15,15.90
2016,05,31,09,16,16.00
2016,05,31,09,17,16.10
2016,05,31,09,18,16.20
2016,05,31,09,19,16.20
2016,05,31,09,20,16.30
2016,05,31,09,21,16.40
2016,05,31,09,22,16.50
2016,05,31,09,23,16.60
2016,05,31,09,24,16.70
2016,05,31,09,25,16.80
2016,05,31,09,26,16.90
2016,05,31,09,27,17.00
2016,05,31,09,28,17.10
2016,05,31,09,29,17.20
2016,05,31,09,30,17.30
2016,05,31,09,31,17.30
2016,05,31,09,32,17.30
2016,05,31,09,33,17.30
2016,05,31,09,34,17.30
2016,05,31,09,35,17.30
2016,05,31,09,36,17.30
2016,05,31,09,37,17.30
2016,05,31,09,38,17.30
2016,05,31,09,39,17.30
2016,05,31,09,40,17.40
2016,05,31,09,41,17.30
2016,05,31,09,42,17.30
2016,05,31,09,43,17.30
2016,05,31,09,44,17.30
2016,05,31,09,45,17.30
2016,05,31,09,46,17.30
2016,05,31,09,47,17.30
2016,05,31,09,48,17.30
2016,05,31,09,49,17.30
2016,05,31,09,50,17.30
2016,05,31,09,51,17.30
2016,05,31,09,52,17.30
2016,05,31,09,53,17.40
2016,05,31,09,54,17.40
2016,05,31,09,55,17.50
2016,05,31,09,56,17.60
2016,05,31,09,57,17.70
2016,05,31,09,58,17.80
2016,05,31,09,59,17.90
2016,05,31,10,00,18.00
2016,05,31,10,01,18.10
2016,05,31,10,02,18.10
2016,05,31,10,03,18.10
2016,05,31,10,04,18.20
2016,05,31,10,05,18.20
2016,05,31,10,06,18.30
2016,05,31,10,07,18.30
2016,05,31,10,08,18.20
2016,05,31,10,09,18.20
2016,05,31,10,10,18.20
2016,05,31,10,11,18.30
2016,05,31,10,12,18.40
2016,05,31,10,13,18.50
2016,05,31,10,14,18.50
2016,05,31,10,15,18.50
2016,05,31,10,16,18.60
2016,05,31,10,17,18.60
2016,05,31,10,18,18.60
2016,05,31,10,19,18.60
2016,05,31,10,20,18.70
2016,05,31,10,21,18.70
2016,05,31,10,22,18.80
2016,05,31,10,23,18.80
2016,05,31,10,24,18.90
2016,05,31,10,25,18.90
2016,05,31,10,26,18.90
2016,05,31,10,27,18.90
2016,05,31,10,28,19.00
2016,05,31,10,29,19.10
2016,05,31,10,30,19.10
2016,05,31,10,31,19.20
2016,05,31,10,32,19.20
2016,05,31,10,33,19.10
2016,05,31,10,34,19.00
2016,05,31,10,35,19.00
2016,05,31,10,36,19.00
2016,05,31,10,37,19.00
2016,05,31,10,38,19.10
2016,05,31,10,39,19.10
2016,05,31,10,40,19.10
2016,05,31,10,41,19.10
2016,05,31,10,42,19.10
2016,05,31,10,43,19.10
2016,05,31,10,44,19.20
2016,05,31,10,45,19.20
2016,05,31,10,46,19.30
2016,05,31,10,47,19.30
2016,05,31,10,48,19.30
2016,05,31,10,49,19.40
2016,05,31,10,50,19.30
2016,05,31,10,51,19.30
2016,05,31,10,52,19.30
2016,05,31,10,53,19.30
2016,05,31,10,54,19.30
2016,05,31,10,55,19.40
2016,05,31,10,56,19.50
2016,05,31,10,57,19.50
2016,05,31,10,58,19.60
2016,05,31,10,59,19.60
2016,05,31,11,00,19.60
2016,05,31,11,01,19.60
2016,05,31,11,02,19.60
2016,05,31,11,03,19.70
2016,05,31,11,04,19.70
2016,05,31,11,05,19.70
2016,05,31,11,06,19.70
2016,05,31,11,07,19.80
2016,05,31,11,08,19.90
2016,05,31,11,09,20.00
2016,05,31,11,10,20.00
2016,05,31,11,11,20.10
2016,05,31,11,12,20.20
2016,05,31,11,13,20.20
2016,05,31,11,14,20.30
2016,05,31,11,15,20.30
2016,05,31,11,16,20.30
2016,05,31,11,17,20.30
2016,05,31,11,18,20.40
2016,05,31,11,19,20.50
2016,05,31,11,20,20.50
2016,05,31,11,21,20.70
2016,05,31,11,22,20.80
2016,05,31,11,23,20.90
2016,05,31,11,24,20.90
2016,05,31,11,25,21.00
2016,05,31,11,26,21.00
2016,05,31,11,27,21.10
2016,05,31,11,28,21.10
2016,05,31,11,29,21.00
2016,05,31,11,30,21.00
2016,05,31,11,31,20.90
2016,05,31,11,32,20.90
2016,05,31,11,33,20.90
2016,05,31,11,34,20.90
2016,05,31,11,35,21.00
2016,05,31,11,36,21.10
2016,05,31,11,37,21.20
2016,05,31,11,38,21.30
2016,05,31,11,39,21.40
2016,05,31,11,40,21.40
2016,05,31,11,41,21.40
2016,05,31,11,42,21.40
2016,05,31,11,43,21.30
2016,05,31,11,44,21.30
2016,05,31,11,45,21.30
2016,05,31,11,46,21.30
2016,05,31,11,47,21.40
2016,05,31,11,48,21.40
2016,05,31,11,49,21.50
2016,05,31,11,50,21.60
2016,05,31,11,51,21.70
2016,05,31,11,52,21.70
2016,05,31,11,53,21.80
2016,05,31,11,54,21.90
2016,05,31,11,55,21.90
2016,05,31,11,56,22.00
2016,05,31,11,57,22.10
2016,05,31,11,58,22.10
2016,05,31,11,59,22.20
2016,05,31,12,00,22.30
2016,05,31,12,01,22.30
2016,05,31,12,02,22.30
2016,05,31,12,03,22.30
2016,05,31,12,04,22.40
2016,05,31,12,05,22.50
2016,05,31,12,06,22.50
2016,05,31,12,07,22.60
2016,05,31,12,08,22.70
2016,05,31,12,09,22.70
2016,05,31,12,10,22.70
2016,05,31,12,11,22.80
2016,05,31,12,12,22.80
2016,05,31,12,13,22.90
2016,05,31,12,14,22.80
2016,05,31,12,15,22.80
2016,05,31,12,16,22.80
2016,05,31,12,17,22.70
2016,05,31,12,18,22.70
2016,05,31,12,19,22.80
2016,05,31,12,20,22.90
2016,05,31,12,21,23.00
2016,05,31,12,22,23.10
2016,05,31,12,23,23.20
2016,05,31,12,24,23.20
2016,05,31,12,25,23.30
2016,05,31,12,26,23.40
2016,05,31,12,27,23.50
2016,05,31,12,28,23.60
2016,05,31,12,29,23.60
2016,05,31,12,30,23.70
2016,05,31,12,31,23.80
2016,05,31,12,32,23.80
2016,05,31,12,33,23.80
2016,05,31,12,34,23.80
2016,05,31,12,35,23.80
2016,05,31,12,36,23.90
2016,05,31,12,37,23.80
2016,05,31,12,38,23.80
2016,05,31,12,39,23.80
2016,05,31,12,40,23.80
2016,05,31,12,41,23.80
2016,05,31,12,42,23.70
2016,05,31,12,43,23.70
2016,05,31,12,44,23.80
2016,05,31,12,45,23.80
2016,05,31,12,46,23.80
2016,05,31,12,47,23.90
2016,05,31,12,48,23.90
2016,05,31,12,49,23.90
2016,05,31,12,50,23.80
2016,05,31,12,51,23.80
2016,05,31,12,52,23.80
2016,05,31,12,53,23.80
2016,05,31,12,54,23.80
2016,05,31,12,55,23.80
2016,05,31,12,56,23.80
2016,05,31,12,57,23.70
2016,05,31,12,58,23.70
2016,05,31,12,59,23.70
2016,05,31,13,00,23.70
2016,05,31,13,01,23.60
2016,05,31,13,02,23.60
2016,05,31,13,03,23.60
2016,05,31,13,04,23.60
2016,05,31,13,05,23.60
2016,05,31,13,06,23.70
2016,05,31,13,07,23.70
2016,05,31,13,08,23.70
2016,05,31,13,09,23.70
2016,05,31,13,10,23.60
2016,05,31,13,11,23.60
2016,05,31,13,12,23.60
2016,05,31,13,13,23.70
2016,05,31,13,14,23.70
2016,05,31,13,15,23.80
2016,05,31,13,16,23.90
2016,05,31,13,17,23.90
2016,05,31,13,18,23.90
2016,05,31,13,19,23.90
2016,05,31,13,20,23.90
2016,05,31,13,21,23.90
2016,05,31,13,22,23.90
2016,05,31,13,23,23.90
2016,05,31,13,24,24.00
2016,05,31,13,25,24.00
2016,05,31,13,26,24.10
2016,05,31,13,27,24.10
2016,05,31,13,28,24.10
2016,05,31,13,29,24.10
2016,05,31,13,30,24.00
2016,05,31,13,31,24.00
2016,05,31,13,32,24.10
2016,05,31,13,33,24.20
2016,05,31,13,34,24.20
2016,05,31,13,35,24.30
2016,05,31,13,36,24.30
2016,05,31,13,37,24.40
2016,05,31,13,38,24.40
2016,05,31,13,39,24.40
2016,05,31,13,40,24.40
2016,05,31,13,41,24.40
2016,05,31,13,42,24.40
2016,05,31,13,43,24.50
2016,05,31,13,44,24.60
2016,05,31,13,45,24.70
2016,05,31,13,46,24.80
2016,05,31,13,47,24.80
2016,05,31,13,48,24.80
2016,05,31,13,49,24.90
2016,05,31,13,50,24.90
2016,05,31,13,51,24.90
2016,05,31,13,52,24.90
2016,05,31,13,53,25.00
2016,05,31,13,54,25.10
2016,05,31,13,55,25.10
2016,05,31,13,56,25.10
2016,05,31,13,57,25.20
2016,05,31,13,58,25.20
2016,05,31,13,59,25.20
2016,05,31,14,00,25.10
2016,05,31,14,01,25.10
2016,05,31,14,02,25.10
2016,05,31,14,03,25.10
2016,05,31,14,04,25.10
2016,05,31,14,05,25.10
2016,05,31,14,06,25.10
2016,05,31,14,07,25.00
2016,05,31,14,08,25.00
2016,05,31,14,09,25.00
2016,05,31,14,10,24.90
2016,05,31,14,11,24.80
2016,05,31,14,12,24.80
2016,05,31,14,13,24.80
2016,05,31,14,14,24.80
2016,05,31,14,15,24.80
2016,05,31,14,16,24.90
2016,05,31,14,17,24.90
2016,05,31,14,18,24.90
2016,05,31,14,19,24.90
2016,05,31,14,20,24.90
2016,05,31,14,21,24.80
2016,05,31,14,22,24.90
2016,05,31,14,23,24.90
2016,05,31,14,24,25.00
2016,05,31,14,25,25.10
2016,05,31,14,26,25.00
2016,05,31,14,27,25.00
2016,05,31,14,28,25.00
2016,05,31,14,29,24.90
2016,05,31,14,30,24.90
2016,05,31,14,31,24.90
2016,05,31,14,32,24.90
2016,05,31,14,33,24.90
2016,05,31,14,34,24.90
2016,05,31,14,35,24.90
2016,05,31,14,36,24.80
2016,05,31,14,37,24.80
2016,05,31,14,38,24.80
2016,05,31,14,39,24.80
2016,05,31,14,40,24.80
2016,05,31,14,41,24.80
2016,05,31,14,42,24.90
2016,05,31,14,43,24.90
2016,05,31,14,44,24.90
2016,05,31,14,45,25.00
2016,05,31,14,46,25.10
2016,05,31,14,47,25.10
2016,05,31,14,48,25.20
2016,05,31,14,49,25.30
2016,05,31,14,50,25.30
2016,05,31,14,51,25.30
2016,05,31,14,52,25.20
2016,05,31,14,53,25.20
2016,05,31,14,54,25.20
2016,05,31,14,55,25.10
2016,05,31,14,56,25.10
2016,05,31,14,57,25.10
2016,05,31,14,58,25.10
2016,05,31,14,59,25.10
2016,05,31,15,00,25.10
2016,05,31,15,01,25.10
2016,05,31,15,02,25.10
2016,05,31,15,03,25.10
2016,05,31,15,04,25.10
2016,05,31,15,05,25.10
2016,05,31,15,06,25.10
2016,05,31,15,07,25.10
2016,05,31,15,08,25.20
2016,05,31,15,09,25.20
2016,05,31,15,10,25.20
2016,05,31,15,11,25.30
2016,05,31,15,12,25.30
2016,05,31,15,13,25.30
2016,05,31,15,14,25.30
2016,05,31,15,15,25.30
2016,05,31,15,16,25.30
2016,05,31,15,17,25.30
2016,05,31,15,18,25.40
2016,05,31,15,19,25.40
2016,05,31,15,20,25.50
2016,05,31,15,21,25.50
2016,05,31,15,22,25.50
2016,05,31,15,23,25.50
2016,05,31,15,24,25.50
2016,05,31,15,25,25.50
2016,05,31,15,26,25.50
2016,05,31,15,27,25.50
2016,05,31,15,28,25.50
2016,05,31,15,29,25.60
2016,05,31,15,30,25.50
2016,05,31,15,31,25.50
2016,05,31,15,32,25.60
2016,05,31,15,33,25.60
2016,05,31,15,34,25.60
2016,05,31,15,35,25.70
2016,05,31,15,36,25.70
2016,05,31,15,37,25.80
2016,05,31,15,38,25.80
2016,05,31,15,39,25.80
2016,05,31,15,40,25.80
2016,05,31,15,41,25.80
2016,05,31,15,42,25.70
2016,05,31,15,43,25.60
2016,05,31,15,44,25.60
2016,05,31,15,45,25.60
2016,05,31,15,46,25.50
2016,05,31,15,47,25.40
2016,05,31,15,48,25.40
2016,05,31,15,49,25.30
2016,05,31,15,50,25.20
2016,05,31,15,51,25.10
2016,05,31,15,52,25.00
2016,05,31,15,53,24.90
2016,05,31,15,54,24.90
2016,05,31,15,55,24.80
2016,05,31,15,56,24.80
2016,05,31,15,57,24.80
2016,05,31,15,58,24.80
2016,05,31,15,59,24.80
2016,05,31,16,00,24.80
2016,05,31,16,01,24.80
2016,05,31,16,02,24.90
2016,05,31,16,03,24.90
2016,05,31,16,04,24.90
2016,05,31,16,05,24.90
2016,05,31,16,06,25.00
2016,05,31,16,07,25.00
2016,05,31,16,08,25.00
2016,05,31,16,09,24.90
2016,05,31,16,10,24.90
2016,05,31,16,11,24.90
2016,05,31,16,12,24.90
2016,05,31,16,13,24.90
2016,05,31,16,14,24.90
2016,05,31,16,15,24.90
2016,05,31,16,16,24.90
2016,05,31,16,17,24.90
2016,05,31,16,18,25.00
2016,05,31,16,19,25.00
2016,05,31,16,20,25.10
2016,05,31,16,21,25.10
2016,05,31,16,22,25.20
2016,05,31,16,23,25.10
2016,05,31,16,24,25.10
2016,05,31,16,25,25.10
2016,05,31,16,26,25.10
2016,05,31,16,27,25.10
2016,05,31,16,28,25.00
2016,05,31,16,29,24.90
2016,05,31,16,30,24.80
2016,05,31,16,31,24.80
2016,05,31,16,32,24.70
2016,05,31,16,33,24.60
2016,05,31,16,34,24.50
2016,05,31,16,35,24.40
2016,05,31,16,36,24.30
2016,05,31,16,37,24.20
2016,05,31,16,38,24.20
2016,05,31,16,39,24.10
2016,05,31,16,40,24.10
2016,05,31,16,41,24.20
2016,05,31,16,42,24.20
2016,05,31,16,43,24.20
2016,05,31,16,44,24.20
2016,05,31,16,45,24.20
2016,05,31,16,46,24.20
2016,05,31,16,47,24.20
2016,05,31,16,48,24.20
2016,05,31,16,49,24.10
2016,05,31,16,50,24.10
2016,05,31,16,51,24.00
2016,05,31,16,52,24.00
2016,05,31,16,53,23.90
2016,05,31,16,54,24.00
2016,05,31,16,55,24.00
2016,05,31,16,56,24.00
2016,05,31,16,57,24.00
2016,05,31,16,58,24.00
2016,05,31,16,59,24.00
2016,05,31,17,00,24.00
2016,05,31,17,01,24.00
2016,05,31,17,02,23.90
2016,05,31,17,03,23.90
2016,05,31,17,04,23.90
2016,05,31,17,05,23.90
2016,05,31,17,06,23.80
2016,05,31,17,07,23.70
2016,05,31,17,08,23.70
2016,05,31,17,09,23.70
2016,05,31,17,10,23.70
2016,05,31,17,11,23.70
2016,05,31,17,12,23.70
2016,05,31,17,13,23.70
2016,05,31,17,14,23.70
2016,05,31,17,15,23.70
2016,05,31,17,16,23.60
2016,05,31,17,17,23.60
2016,05,31,17,18,23.60
2016,05,31,17,19,23.60
2016,05,31,17,20,23.60
2016,05,31,17,21,23.60
2016,05,31,17,22,23.60
2016,05,31,17,23,23.70
2016,05,31,17,24,23.70
2016,05,31,17,25,23.70
2016,05,31,17,26,23.70
2016,05,31,17,27,23.70
2016,05,31,17,28,23.60